DUBAISAT-1

Last updated on Fri Sep 11 2026 00:02:43 GMT+0000 (Coordinated Universal Time)

1 35682U 09041B 26253.62149766 .00000589 00000+0 94490-4 0 9998 2 35682 98.0169 26.0054 0011009 150.4492 209.7342 14.75244702917697
UTC large
Height (km)
Speed (km/s)
/
Latitude / Longitude
Inclination (degrees)
Orbital Period (minutes)
Azimuth
Elevation
Range (km)
Doppler Factor

Next 0 passes for location: London (51.5072 / 0.1276)

No passes found over London.
DUBAISAT-1